Back to catalog

STARLINK-4346

AliveCommunicationsSSO
NORAD 53073·PAYLOAD·🇺🇸 United States

Launched Jul 11, 2022 from Vandenberg Space Force Base

Loading…

Next Passes (next 24 hours)

TLE

FreshSource: CelesTrak SupGP

Epoch: Sep 14, 2026, 14:09 UTC

1 53073C 22077AG  26257.59006944 -.00030861  00000+0 -12470-2 0  2577
2 53073  97.6333  88.7166 0005202 291.9444  63.6904 15.24823242    11

Track STARLINK-4346 in real time with AllMySat

Download on the App Store